EW7070 Weather Reports


time (UTC)temp
C
wind
direction
speed
KPH
gust
KPH
rain 1hr
cm
rain 24hr
cm
rain mn
cm
humidity
%
barometer
mb
20260506062400 17 32 0.0 0.0 0.00 0.03 0.00 98 1016.2
20260506061901 17 32 0.0 0.0 0.00 0.03 0.00 98 1016.3
20260506061359 17 32 0.0 0.0 0.00 0.03 0.00 98 1016.2
20260506060857 17 32 0.0 0.0 0.00 0.03 0.00 98 1016.4
20260506060331 17 32 0.0 0.0 0.00 0.03 0.00 98 1016.4
20260506051052 17 32 0.0 0.0 0.00 0.03 0.00 97 1016.4
20260506050524 17 32 0.0 0.0 0.00 0.03 0.00 97 1016.3
20260506045011 17 32 0.0 0.0 0.00 0.03 0.00 97 1016.2
20260506044509 17 93 0.0 0.0 0.00 0.03 0.00 97 1016.3
20260506043942 17 93 0.0 0.0 0.00 0.03 0.00 97 1016.3
20260506043439 17 311 0.0 0.0 0.00 0.03 0.00 97 1016.2
20260506042920 17 311 0.0 0.0 0.00 0.03 0.00 97 1016.2
20260506042415 17 311 0.0 0.0 0.00 0.03 0.00 97 1016.1
20260506041912 17 311 0.0 0.0 0.00 0.03 0.00 97 1015.9
20260506041354 17 311 0.0 0.0 0.00 0.03 0.00 98 1015.9
20260506040848 17 311 0.0 1.6 0.00 0.03 0.00 97 1016.0
20260506040348 17 311 0.0 1.6 0.00 0.03 0.00 97 1016.0
20260506040054 18 311 0.0 0.0 0.00 0.03 0.00 97 1016.0
20260506035308 18 311 0.0 1.6 0.00 0.03 0.00 97 1015.8
20260506034806 18 311 0.0 1.6 0.00 0.03 0.00 97 1015.8
20260506034019 18 311 0.0 3.2 0.00 0.03 0.00 97 1015.8
20260506033220 18 24 0.0 1.6 0.00 0.03 0.00 97 1015.8
20260506032720 18 105 0.0 1.6 0.00 0.03 0.00 97 1015.8
20260506032219 18 105 0.0 0.0 0.00 0.03 0.00 97 1015.7
20260506031721 18 105 0.0 0.0 0.00 0.03 0.00 97 1015.7
20260506031156 18 105 0.0 0.0 0.00 0.03 0.00 97 1015.8
20260506030700 18 105 0.0 0.0 0.00 0.03 0.00 97 1015.8
20260506030202 18 105 0.0 0.0 0.00 0.03 0.00 97 1015.7
20260506025923 18 105 0.0 1.6 0.00 0.03 0.03 97 1015.6
20260506025133 18 105 0.0 1.6 0.00 0.03 0.03 97 1015.7
20260506024623 18 328 0.0 3.2 0.00 0.03 0.03 97 1015.5
20260506024110 18 328 0.0 3.2 0.00 0.03 0.03 97 1015.6
20260506023541 18 328 0.0 3.2 0.00 0.03 0.03 97 1015.7
20260506023042 18 328 0.0 0.0 0.00 0.03 0.03 96 1015.7
20260506022810 18 328 0.0 1.6 0.00 0.03 0.03 96 1015.6
20260506022039 18 328 0.0 1.6 0.00 0.03 0.03 96 1015.5
20260506021537 18 303 0.0 0.0 0.00 0.03 0.03 96 1015.5
20260506021029 18 303 0.0 0.0 0.00 0.03 0.03 96 1015.4
20260506020801 18 303 0.0 0.0 0.00 0.03 0.03 96 1015.4
20260506020029 18 303 0.0 0.0 0.00 0.03 0.03 96 1015.5
20260506015521 18 303 0.0 0.0 0.00 0.03 0.03 96 1015.7
20260506015021 18 303 0.0 0.0 0.00 0.03 0.03 96 1015.8
20260506014518 18 303 0.0 0.0 0.00 0.03 0.03 96 1015.9
20260506014013 18 303 0.0 0.0 0.00 0.03 0.03 96 1015.9
20260506013503 19 303 0.0 0.0 0.00 0.03 0.03 96 1016.0
20260506013231 19 303 0.0 0.0 0.00 0.03 0.03 96 1016.0
20260506012727 19 303 0.0 0.0 0.00 0.03 0.03 95 1015.9
20260506011959 19 303 0.0 0.0 0.00 0.03 0.03 95 1016.0
20260506011432 19 303 0.0 0.0 0.00 0.03 0.03 95 1015.9
20260506010910 19 303 0.0 0.0 0.00 0.03 0.03 96 1015.9
20260506010401 19 303 0.0 0.0 0.00 0.03 0.03 95 1015.9
20260506005846 19 303 0.0 0.0 0.00 0.03 0.03 95 1015.9
20260506005337 19 303 0.0 0.0 0.00 0.03 0.03 95 1015.8
20260506004836 20 303 0.0 0.0 0.00 0.03 0.03 95 1015.8
20260506004308 20 303 0.0 0.0 0.00 0.03 0.03 94 1015.6
20260506003745 20 303 0.0 0.0 0.00 0.03 0.03 94 1015.6
20260506003241 20 303 0.0 0.0 0.00 0.03 0.03 94 1015.6
20260506002739 20 303 0.0 0.0 0.00 0.03 0.03 94 1015.5
20260506002234 20 303 0.0 0.0 0.00 0.03 0.03 94 1015.6
20260506001733 20 303 0.0 0.0 0.00 0.03 0.03 94 1015.5
20260506001441 20 303 0.0 0.0 0.00 0.03 0.03 94 1015.5
20260506000712 20 303 0.0 0.0 0.00 0.03 0.03 93 1015.6
20260506000211 20 303 0.0 0.0 0.00 0.03 0.03 93 1015.5
20260505235942 20 303 0.0 0.0 0.00 0.03 0.03 93 1015.5
20260505235205 20 303 0.0 0.0 0.00 0.03 0.03 93 1015.5
20260505234701 20 303 0.0 0.0 0.00 0.03 0.03 94 1015.4
20260505234131 20 303 0.0 0.0 0.00 0.03 0.03 93 1015.5
20260505233607 21 303 0.0 0.0 0.00 0.03 0.03 92 1015.4
20260505233102 21 303 0.0 0.0 0.00 0.03 0.03 92 1015.4
20260505232830 21 303 0.0 0.0 0.00 0.03 0.03 93 1015.3
20260505232049 21 303 0.0 0.0 0.00 0.03 0.03 93 1015.2
20260505231525 21 303 0.0 0.0 0.00 0.03 0.03 93 1015.2
20260505231005 21 303 0.0 0.0 0.00 0.03 0.03 93 1015.2
20260505230504 21 303 0.0 0.0 0.00 0.03 0.03 94 1015.1
20260505230005 21 303 0.0 0.0 0.00 0.03 0.03 93 1015.2
20260505225501 21 303 0.0 0.0 0.00 0.03 0.03 93 1015.1
20260505224950 21 303 0.0 0.0 0.00 0.03 0.03 93 1015.3
20260505224422 21 303 0.0 0.0 0.00 0.03 0.03 93 1015.3
20260505223857 21 303 0.0 0.0 0.00 0.03 0.03 93 1015.3
20260505223355 22 303 0.0 0.0 0.00 0.03 0.03 92 1015.3
20260505222825 22 303 0.0 0.0 0.00 0.03 0.03 91 1015.1
20260505222324 22 303 0.0 0.0 0.00 0.03 0.03 91 1015.3
20260505222043 22 303 0.0 0.0 0.00 0.03 0.03 91 1015.3
20260505221544 22 303 0.0 0.0 0.00 0.05 0.03 91 1015.3
20260505220808 22 303 0.0 0.0 0.00 0.05 0.03 91 1015.3
20260505220305 22 303 0.0 0.0 0.00 0.05 0.03 91 1015.2
20260505220029 22 303 0.0 0.0 0.00 0.05 0.03 91 1015.3
20260505215256 22 303 0.0 0.0 0.00 0.05 0.03 90 1015.3
20260505214730 23 303 0.0 0.0 0.00 0.05 0.03 89 1015.2
20260505214201 23 303 0.0 0.0 0.00 0.05 0.03 90 1015.1
20260505213903 23 303 0.0 0.0 0.00 0.05 0.03 89 1015.1
20260505213336 23 303 0.0 0.0 0.00 0.05 0.03 88 1015.1
20260505212559 23 303 0.0 0.0 0.00 0.05 0.03 88 1015.0
20260505212052 24 303 0.0 0.0 0.00 0.05 0.03 87 1015.0
20260505211528 24 303 0.0 0.0 0.00 0.05 0.03 85 1014.9
20260505211022 25 303 0.0 0.0 0.00 0.05 0.03 85 1014.9
20260505210501 25 303 0.0 0.0 0.00 0.05 0.03 84 1014.9
20260505210002 25 303 0.0 0.0 0.00 0.05 0.03 83 1014.9
20260505205503 25 303 0.0 0.0 0.00 0.05 0.03 82 1014.8
20260505205009 26 303 1.6 3.2 0.00 0.05 0.03 81 1014.7
20260505205001 26 303 0.0 1.6 0.00 0.05 0.03 82 1014.8
20260505203930 26 303 1.6 4.8 0.00 0.05 0.03 80 1014.6
20260505203400 27 303 1.6 4.8 0.00 0.05 0.03 78 1014.7
20260505202834 27 288 0.0 3.2 0.00 0.05 0.03 77 1014.7
20260505202318 28 288 0.0 3.2 0.00 0.05 0.03 75 1014.6
20260505201818 28 288 1.6 4.8 0.00 0.05 0.03 73 1014.7
20260505201319 29 288 1.6 4.8 0.00 0.05 0.03 72 1014.7
20260505200804 30 271 1.6 3.2 0.00 0.05 0.03 70 1014.7
20260505200304 31 17 0.0 1.6 0.00 0.05 0.03 66 1014.8
20260505195806 32 17 0.0 0.0 0.00 0.05 0.03 65 1014.7
20260505195740 32 17 0.0 0.0 0.00 0.05 0.03 63 1014.7
20260505194711 32 17 0.0 0.0 0.00 0.05 0.03 63 1014.7
20260505194202 32 17 0.0 3.2 0.00 0.05 0.03 60 1014.6
20260505193658 32 17 0.0 3.2 0.00 0.05 0.03 62 1014.6
20260505193154 32 332 0.0 6.4 0.00 0.05 0.03 63 1014.6
20260505192650 32 86 0.0 6.4 0.00 0.05 0.03 60 1014.6
20260505192128 32 56 0.0 0.0 0.00 0.05 0.03 62 1014.6
20260505191628 32 56 0.0 0.0 0.00 0.05 0.03 63 1014.7
20260505191125 32 26 0.0 1.6 0.00 0.05 0.03 60 1014.6
20260505190826 32 337 0.0 1.6 0.00 0.05 0.03 63 1014.7
20260505190054 32 337 0.0 4.8 0.00 0.05 0.03 62 1014.6
20260505185552 32 69 1.6 6.4 0.00 0.05 0.03 61 1014.6
20260505185054 32 52 1.6 6.4 0.00 0.05 0.03 61 1014.6
20260505184535 32 114 1.6 4.8 0.00 0.05 0.03 60 1014.6
20260505184036 32 51 1.6 4.8 0.00 0.05 0.03 61 1014.7
20260505183509 32 308 1.6 11.3 0.00 0.05 0.03 61 1014.7
20260505183213 32 234 1.6 11.3 0.00 0.05 0.03 60 1014.7
20260505182419 32 301 0.0 9.7 0.00 0.05 0.03 60 1014.6
20260505181908 32 7 1.6 8.0 0.00 0.05 0.03 62 1014.7
20260505181401 32 327 3.2 8.0 0.00 0.05 0.03 62 1014.7
20260505180856 32 348 1.6 8.0 0.00 0.05 0.03 64 1014.7
20260505180602 32 310 1.6 8.0 0.00 0.05 0.03 61 1014.7
20260505180055 32 322 1.6 8.0 0.00 0.08 0.03 62 1014.7
20260505175312 32 265 1.6 12.9 0.00 0.08 0.03 63 1014.7
20260505174812 32 347 3.2 12.9 0.00 0.08 0.03 63 1014.8
20260505174312 32 320 3.2 11.3 0.00 0.08 0.03 63 1014.7
20260505173747 31 27 3.2 11.3 0.00 0.08 0.03 62 1014.8
20260505173219 31 328 3.2 11.3 0.00 0.08 0.03 62 1014.8
20260505172713 31 335 3.2 9.7 0.00 0.08 0.03 63 1014.9
20260505172211 31 25 3.2 11.3 0.00 0.08 0.03 65 1014.8
20260505171642 31 315 4.8 11.3 0.00 0.08 0.03 63 1014.9
20260505171140 31 264 4.8 9.7 0.00 0.08 0.03 64 1015.1
20260505170630 31 287 4.8 12.9 0.00 0.08 0.03 65 1015.2
20260505170129 31 299 4.8 12.9 0.00 0.08 0.03 64 1015.2
20260505165616 31 42 3.2 11.3 0.00 0.08 0.03 64 1015.1
20260505165118 31 29 3.2 11.3 0.00 0.08 0.03 64 1015.2
20260505164614 31 357 3.2 11.3 0.00 0.08 0.03 64 1015.3
20260505164112 31 289 3.2 11.3 0.00 0.08 0.03 65 1015.4
20260505163559 30 29 6.4 12.9 0.00 0.08 0.03 67 1015.4
20260505163056 30 22 6.4 14.5 0.00 0.08 0.03 66 1015.5
20260505162553 30 316 6.4 14.5 0.00 0.08 0.03 65 1015.6
20260505162310 30 299 8.0 16.1 0.00 0.08 0.03 66 1015.7
20260505161812 30 18 6.4 16.1 0.00 0.08 0.03 67 1015.8
20260505161040 30 341 6.4 14.5 0.00 0.08 0.03 66 1015.8
20260505160539 30 299 6.4 14.5 0.00 0.08 0.03 66 1015.9
20260505152938 29 293 4.8 14.5 0.00 0.08 0.03 69 1016.4
20260505152428 29 343 6.4 14.5 0.00 0.08 0.03 70 1016.4
20260505151904 29 349 4.8 14.5 0.00 0.08 0.03 70 1016.5
20260505151402 28 301 4.8 14.5 0.00 0.08 0.03 70 1016.5
20260505150842 28 348 8.0 17.7 0.00 0.08 0.03 70 1016.6
20260505150337 28 286 8.0 16.1 0.00 0.08 0.03 69 1016.6
20260505140626 27 316 4.8 11.3 0.00 0.08 0.03 72 1017.3
20260505140128 27 305 4.8 14.5 0.00 0.08 0.03 74 1017.2
20260505124825 25 264 1.6 9.7 0.00 0.08 0.03 82 1017.1
20260505124324 25 289 1.6 11.3 0.00 0.08 0.03 81 1017.1
20260505123821 24 353 1.6 11.3 0.00 0.08 0.03 83 1016.9
20260505123256 24 16 1.6 6.4 0.00 0.08 0.03 83 1016.9
20260505122734 23 305 3.2 6.4 0.00 0.08 0.03 83 1016.9
20260505122500 23 319 3.2 9.7 0.00 0.08 0.03 83 1017.0
20260505121724 23 297 4.8 9.7 0.00 0.08 0.03 83 1016.8
20260505121448 23 306 3.2 9.7 0.00 0.08 0.03 83 1016.7
20260505120716 23 302 1.6 8.0 0.00 0.08 0.03 84 1016.8
20260505120147 23 336 1.6 8.0 0.00 0.08 0.03 85 1016.7
20260505115647 23 120 0.0 3.2 0.00 0.08 0.03 85 1016.7
20260505115139 22 148 1.6 8.0 0.00 0.08 0.03 85 1016.6
20260505115131 23 120 1.6 8.0 0.00 0.08 0.03 86 1016.7
20260505114129 22 127 0.0 1.6 0.00 0.08 0.03 87 1016.5
20260505113637 22 40 0.0 0.0 0.00 0.08 0.03 89 1016.4
20260505113629 22 55 0.0 1.6 0.00 0.08 0.03 88 1016.6
20260505112627 21 45 0.0 0.0 0.00 0.08 0.03 90 1016.4
20260505112124 21 126 0.0 0.0 0.00 0.08 0.03 90 1016.4
20260505111852 21 126 0.0 0.0 0.00 0.08 0.03 92 1016.3
20260505111115 21 91 0.0 0.0 0.00 0.08 0.03 92 1016.3
20260505110617 20 91 0.0 1.6 0.00 0.08 0.03 92 1016.2
20260505110111 20 103 1.6 4.8 0.00 0.08 0.03 92 1016.0
20260505101524 19 265 4.8 11.3 0.00 0.08 0.03 95 1015.7
20260505101023 18 274 1.6 11.3 0.00 0.08 0.03 95 1015.5
20260505100523 18 297 0.0 4.8 0.00 0.08 0.03 94 1015.4
20260505100516 18 79 0.0 0.0 0.00 0.08 0.03 93 1015.4
20260505100246 18 79 0.0 0.0 0.00 0.08 0.03 93 1015.4
20260505095742 18 79 0.0 6.4 0.00 0.08 0.03 94 1015.3
20260505095008 18 79 1.6 6.4 0.00 0.08 0.03 94 1015.3
20260505094507 18 124 1.6 4.8 0.00 0.08 0.03 94 1015.2
20260505093938 19 272 1.6 4.8 0.00 0.08 0.03 93 1015.1
20260505093415 19 171 0.0 3.2 0.00 0.08 0.03 93 1015.1
20260505092915 19 177 0.0 3.2 0.00 0.08 0.03 93 1015.1
20260505092359 19 208 0.0 3.2 0.00 0.08 0.03 93 1015.0
20260505091859 19 267 0.0 3.2 0.00 0.08 0.03 92 1014.9
20260505091614 19 310 1.6 4.8 0.00 0.08 0.03 92 1015.0
20260505091104 20 310 1.6 4.8 0.00 0.08 0.03 91 1014.9
20260505090334 20 42 0.0 1.6 0.00 0.08 0.03 91 1014.9
20260505085830 20 42 0.0 1.6 0.00 0.08 0.03 90 1015.0
20260505085320 20 42 0.0 4.8 0.00 0.08 0.03 90 1014.8
20260505084810 20 42 0.0 4.8 0.00 0.08 0.03 90 1014.8
20260505084254 20 42 0.0 4.8 0.00 0.08 0.03 90 1014.9
20260505083753 20 177 1.6 4.8 0.00 0.08 0.03 90 1014.8
20260505083253 20 86 1.6 8.0 0.00 0.08 0.03 89 1015.0
20260505082752 20 234 1.6 8.0 0.00 0.08 0.03 89 1014.8
20260505082738 21 316 3.2 6.4 0.03 0.08 0.03 89 1014.7
20260505081734 21 278 4.8 6.4 0.03 0.08 0.03 88 1014.6
20260505081223 21 239 3.2 6.4 0.03 0.08 0.03 88 1014.6
20260505080716 21 235 3.2 6.4 0.03 0.08 0.03 87 1014.7
20260505080152 21 256 3.2 4.8 0.03 0.08 0.03 87 1014.6
20260505075923 21 234 3.2 9.7 0.03 0.08 0.03 87 1014.5
20260505075147 21 263 4.8 9.7 0.03 0.08 0.03 86 1014.5
20260505074634 22 284 3.2 6.4 0.03 0.08 0.03 86 1014.4
20260505074110 22 253 3.2 9.7 0.03 0.08 0.03 86 1014.4
20260505073840 22 187 3.2 9.7 0.03 0.08 0.03 85 1014.4
20260505073108 22 207 1.6 8.0 0.03 0.08 0.03 84 1014.4
20260505072607 22 234 3.2 12.9 0.03 0.08 0.03 86 1014.5
20260505072107 22 147 4.8 12.9 0.00 0.05 0.00 84 1014.4
20260505071831 22 312 4.8 11.3 0.00 0.05 0.00 85 1014.5
20260505071058 22 311 3.2 11.3 0.00 0.05 0.00 85 1014.4
20260505070559 21 265 3.2 11.3 0.00 0.05 0.00 85 1014.4
20260505070058 21 312 3.2 12.9 0.00 0.05 0.00 85 1014.4
20260505065539 21 26 3.2 12.9 0.00 0.05 0.00 85 1014.3
20260505065241 22 111 3.2 16.1 0.00 0.05 0.00 85 1014.4
20260505064739 22 103 1.6 16.1 0.00 0.05 0.00 84 1014.5
20260505064007 22 338 3.2 20.9 0.00 0.05 0.00 85 1014.5
20260505063736 22 315 6.4 20.9 0.00 0.05 0.00 85 1014.5
20260505062942 22 240 4.8 14.5 0.00 0.05 0.00 84 1014.7